Theta_e
332 339 334 328 313 312 307 309 316 314 316 320 321 319 319 322 317 314 335 334 338 339 337 339 344 345 344 344 343 341 342 343 344 346 346 346 345 343 340 338 338 337 336 335 334 334 335 335 335
330 331 323 322 310 305 306 311 313 317 321 323 324 323 321 320 324 327 330 336 339 338 336 335 343 345 344 342 341 340 340 340 341 342 345 344 342 342 341 337 337 336 336 335 334 333 334 334 334
328 322 320 316 312 306 306 311 316 321 322 323 322 326 323 321 325 329 336 337 340 335 338 337 343 344 343 341 340 339 338 338 338 338 338 339 338 338 338 338 336 335 336 334 334 334 333 332 331
323 322 318 311 306 310 309 314 320 319 322 324 324 320 326 331 329 333 336 338 338 334 341 341 344 344 342 341 339 338 337 337 336 336 336 335 336 335 334 335 335 338 337 336 334 333 332 330 330
325 319 310 308 307 309 313 314 322 317 320 322 322 319 321 330 335 336 335 337 333 333 340 341 343 343 342 341 340 338 337 336 336 336 337 335 336 333 332 332 331 331 331 332 331 330 329 330 331
317 317 306 300 305 309 314 318 321 318 321 322 321 320 322 331 332 333 336 335 333 333 338 341 336 340 341 342 340 339 336 336 335 334 335 336 336 335 334 333 332 331 330 329 328 329 330 331 331
311 311 305 304 303 309 312 318 317 318 320 320 324 317 322 326 331 333 335 334 334 333 336 341 341 339 335 337 338 338 338 337 336 334 333 334 335 335 334 332 331 329 330 329 329 329 330 331 332
317 311 305 307 302 303 311 313 314 318 317 327 326 318 320 326 331 333 334 333 334 333 334 335 338 340 340 338 332 333 335 335 335 334 332 330 331 331 331 330 329 330 330 330 330 330 331 332 332
314 307 303 304 304 306 312 311 316 322 322 323 325 324 328 331 330 331 330 331 332 333 334 334 336 339 336 335 331 330 331 332 331 331 327 328 336 334 332 327 328 329 330 332 332 332 333 332 330
313 305 303 309 310 309 310 311 313 317 319 320 323 326 331 328 328 326 326 326 328 331 333 333 333 335 337 333 335 336 336 337 338 338 337 338 336 336 332 327 325 327 327 329 331 332 331 328 330
309 306 306 308 310 310 309 311 314 314 314 319 320 323 325 326 326 324 326 327 327 331 332 334 334 337 337 336 336 337 337 338 338 338 338 338 337 338 337 336 336 336 326 333 332 332 331 331 331
307 308 307 308 309 309 309 312 312 315 316 318 323 327 325 325 324 326 325 328 329 329 330 332 336 336 338 338 336 337 337 338 337 337 336 337 335 336 335 334 335 335 335 334 333 333 333 332 331
308 310 308 309 309 310 311 310 311 313 319 322 325 327 325 326 325 328 327 329 329 328 330 332 337 336 337 337 337 337 336 336 336 336 335 335 335 335 335 335 335 335 335 334 333 333 333 332 332
312 311 308 308 309 310 309 310 312 314 320 322 324 325 326 326 326 328 328 329 328 332 333 335 335 336 335 334 335 335 335 335 336 336 336 335 336 336 336 336 336 336 336 335 335 334 333 333 333
309 306 308 309 309 309 310 307 308 314 320 320 322 325 326 328 330 329 331 331 333 333 334 333 333 334 332 332 333 334 336 335 336 337 337 337 337 337 337 337 337 337 338 336 336 335 335 333 333
302 305 301 309 307 310 309 304 309 313 318 319 322 324 324 327 328 331 332 332 333 334 333 333 332 332 333 332 334 335 336 337 338 338 338 338 337 338 337 337 337 338 336 335 334 334 331 331 330
300 296 298 303 304 307 308 304 310 311 316 318 321 323 324 325 328 330 332 333 333 334 334 334 334 334 334 335 335 336 337 337 338 338 338 337 337 336 336 336 334 334 332 333 331 330 330 329 329
295 296 299 299 302 302 305 305 309 308 314 317 319 322 323 324 326 329 331 332 333 334 334 335 335 335 336 336 336 337 337 337 338 337 336 334 332 330 331 330 329 330 330 330 329 327 328 326 326
302 300 298 300 301 301 304 304 307 308 308 313 318 320 322 324 327 329 330 331 330 329 331 332 332 333 334 334 333 333 334 335 331 327 319 319 319 318 321 322 322 323 323 322 322 322 321 321 322
300 299 298 298 301 299 301 302 305 306 307 309 313 318 321 323 319 318 319 322 325 324 325 327 328 329 331 333 333 335 335 326 318 315 312 312 314 316 316 317 317 318 318 319 319 319 318 319 320
300 298 298 298 298 300 300 299 302 307 304 303 307 313 320 322 314 312 311 313 316 316 316 316 316 318 319 325 330 330 326 319 313 310 309 310 312 312 312 313 314 315 316 316 316 316 315 312 316
295 302 301 297 296 292 301 292 301 306 302 299 302 308 312 311 310 307 306 307 308 309 311 311 311 311 310 314 314 312 311 304 304 305 308 308 308 307 307 308 309 309 310 310 311 312 313 313 310
297 302 300 299 295 293 294 292 299 304 299 297 298 301 303 305 305 304 304 303 304 305 305 305 304 303 304 305 306 305 304 302 302 303 304 304 304 303 302 303 304 304 306 306 307 307 308 309 309
301 297 296 295 294 287 293 292 294 297 300 296 297 298 298 299 300 301 302 301 299 299 300 300 299 298 300 300 301 299 298 299 298 298 299 299 299 298 297 299 299 299 300 300 301 302 303 303 304
300 295 285 285 284 285 290 292 295 300 301 298 296 296 297 298 297 296 295 294 295 295 295 296 296 294 295 295 295 295 295 295 294 294 294 294 293 293 293 294 295 295 295 296 297 298 298 298 298
294 293 288 282 283 286 288 287 295 297 298 298 298 297 297 297 297 296 295 295 295 294 293 293 293 292 293 292 291 292 292 292 291 291 291 291 290 291 292 292 293 293 293 293 294 295 295 295 295
294 289 292 285 281 285 289 291 293 295 295 295 295 296 297 297 297 296 296 295 294 293 292 293 292 291 290 290 290 289 289 289 289 289 289 289 289 289 290 291 291 291 291 291 291 291 292 292 292
295 296 286 288 281 281 285 287 291 290 292 293 294 295 297 297 296 295 294 293 293 292 291 291 291 289 289 289 288 288 287 288 288 287 287 287 288 288 288 288 288 288 289 289 289 289 290 289 290
290 289 288 290 287 283 282 286 289 293 294 293 295 296 296 294 293 293 293 292 291 290 289 289 289 288 288 288 287 287 286 287 287 286 286 286 286 286 286 286 286 286 286 287 287 287 288 287 287
291 291 290 288 283 283 283 285 289 290 297 296 296 295 294 293 292 291 290 289 288 288 288 287 287 287 286 286 286 285 285 285 284 284 284 284 284 285 284 285 285 285 285 285 286 285 286 285 285
Wind_Speed
5 3 2 5 5 5 4 5 1 7 6 3 6 2 2 6 4 5 7 6 15 14 13 12 9 14 14 13 13 12 11 11 12 13 14 16 16 15 14 14 11 10 11 11 11 11 11 12 12
1 1 3 2 4 6 6 2 6 4 5 9 7 4 2 5 3 7 11 10 16 13 12 13 10 13 14 13 12 11 11 10 10 10 13 14 14 13 14 10 10 10 11 10 10 10 10 10 11
3 0 4 2 1 3 4 2 8 10 5 4 4 4 2 4 4 12 6 16 14 12 11 12 11 13 12 12 11 11 10 9 9 8 9 10 12 12 9 9 8 8 10 10 10 10 9 9 9
3 4 3 4 4 4 4 3 9 10 4 2 4 6 5 4 10 5 14 15 13 12 11 13 11 13 12 10 10 10 9 9 8 8 8 10 9 8 8 8 8 9 8 9 7 7 7 7 8
1 2 2 2 2 2 2 1 11 7 6 5 1 5 4 8 3 10 14 13 12 12 10 13 9 11 10 11 9 9 8 8 8 8 7 8 8 7 8 8 8 8 8 7 6 6 6 7 7
1 2 4 3 1 3 4 3 8 3 4 6 4 8 6 3 9 12 14 12 11 11 10 11 8 8 9 9 8 7 8 7 7 6 6 6 6 6 6 6 5 6 6 5 5 5 5 4 4
4 2 2 3 2 2 5 4 3 2 5 4 8 6 3 5 10 13 12 11 10 11 10 9 10 9 6 7 7 6 6 7 6 5 5 5 4 4 4 3 3 3 3 3 3 3 3 4 4
3 3 2 1 3 4 4 1 2 2 3 6 1 4 5 10 13 11 12 11 10 10 10 9 8 9 8 7 6 6 6 6 5 5 5 4 2 2 2 0 3 5 5 4 3 3 4 6 6
1 3 4 2 1 4 4 2 2 1 5 3 2 1 2 19 13 14 12 10 9 8 9 9 9 8 6 6 6 6 6 4 4 5 4 3 1 1 1 5 5 5 6 7 6 6 6 6 8
4 3 2 2 2 2 3 3 1 4 5 5 5 5 14 18 15 15 15 12 12 11 9 8 9 8 7 5 7 6 5 4 3 2 0 2 3 3 4 3 4 5 5 7 8 8 8 8 4
3 4 2 3 1 3 5 1 1 3 5 4 6 12 15 19 16 14 14 13 12 10 9 8 8 7 7 5 4 3 3 3 3 3 2 1 2 1 2 3 2 3 1 4 4 4 4 5 5
8 4 3 4 1 1 3 5 2 6 2 3 4 15 18 18 17 16 14 14 13 11 11 9 9 7 6 4 5 4 3 3 3 3 3 2 2 2 3 3 3 3 3 5 4 4 6 7 7
13 11 6 4 2 1 3 3 4 7 5 3 8 14 16 17 16 13 11 10 10 11 11 10 10 9 7 7 4 4 4 4 3 3 3 4 3 3 4 4 4 5 4 4 5 6 6 7 8
10 16 9 5 3 0 3 3 3 3 3 4 9 12 14 16 16 13 11 11 12 11 11 10 10 9 7 6 6 4 4 4 4 4 4 5 4 4 4 5 5 5 5 5 6 6 7 8 8
2 13 9 9 5 4 3 7 5 3 3 4 7 9 11 14 15 15 14 12 12 9 8 10 10 9 8 8 7 5 4 4 4 4 5 5 5 5 6 6 6 6 5 7 7 7 7 8 8
3 6 16 11 7 6 6 10 4 2 3 6 6 7 9 12 13 12 11 11 9 8 9 9 7 9 9 8 6 5 4 4 4 3 3 5 5 6 6 6 6 6 6 6 6 6 7 7 7
3 4 16 19 7 4 11 13 3 2 4 7 7 7 8 9 10 11 11 10 9 9 8 8 9 9 9 8 6 5 5 4 4 3 3 5 6 6 6 6 6 6 5 5 5 6 7 7 7
5 4 11 21 10 6 12 16 6 3 4 7 7 6 7 8 9 9 10 9 8 8 7 6 6 6 6 5 5 4 3 3 2 3 4 6 5 6 5 4 5 5 5 5 5 7 7 7 8
6 7 3 0 2 5 15 15 13 6 5 6 7 7 8 8 3 4 5 6 4 3 5 5 5 5 5 4 4 4 3 3 5 6 8 7 7 6 6 5 5 6 5 6 6 6 8 7 6
1 5 7 3 4 6 7 15 10 6 6 7 5 7 8 10 7 7 6 4 5 6 5 5 5 4 1 1 1 1 3 6 6 6 7 8 8 9 7 8 6 7 5 6 7 7 6 7 6
5 6 4 4 3 1 1 8 10 11 7 1 2 1 7 11 9 8 8 7 7 9 8 9 9 8 8 5 3 3 5 5 5 7 6 8 11 11 10 10 8 7 6 5 7 7 8 6 8
3 4 5 9 6 5 7 4 14 18 10 5 2 5 7 11 11 10 10 10 10 10 10 12 12 12 12 11 10 11 8 7 5 4 7 9 13 13 13 12 11 10 7 9 8 7 6 6 7
2 4 5 5 6 1 5 4 4 9 14 9 7 7 9 10 12 13 13 12 12 12 11 12 14 15 14 14 12 9 10 4 5 5 8 9 9 12 14 13 13 12 9 10 9 8 8 6 6
12 8 6 4 2 6 9 8 3 7 15 10 9 10 11 13 14 15 14 14 14 12 12 11 13 15 14 15 14 13 12 6 6 9 8 7 7 8 12 11 10 10 9 10 10 9 10 8 7
5 9 3 3 4 5 0 10 8 3 5 14 16 15 14 16 15 15 15 14 14 15 13 13 13 15 15 15 15 12 14 11 12 9 7 7 5 8 10 11 11 8 9 9 10 9 9 9 8
10 5 4 6 5 4 2 8 2 4 5 13 14 16 17 17 15 16 15 13 14 13 13 12 11 15 13 12 14 13 13 7 7 10 7 7 7 7 9 9 9 11 11 10 9 7 8 9 9
7 6 2 5 2 2 5 2 4 8 13 16 17 18 17 15 14 14 12 10 11 11 11 10 10 12 10 14 9 11 11 9 7 10 8 7 7 7 10 12 10 10 10 11 11 8 9 9 9
4 13 3 2 6 6 5 5 5 13 17 18 19 18 15 12 11 10 9 9 9 10 9 10 9 10 10 11 9 8 8 6 7 9 11 9 8 10 10 10 10 10 11 12 12 10 11 12 9
5 5 3 2 2 3 2 3 3 14 18 21 19 15 11 11 10 10 8 7 9 8 7 10 11 10 10 9 8 9 8 8 8 8 9 10 9 9 9 10 11 12 12 12 12 13 14 14 13
1 2 4 6 5 2 2 2 2 6 15 18 16 13 12 11 10 9 8 8 9 10 10 10 9 9 9 9 9 9 8 8 8 8 8 8 8 9 10 11 11 11 12 12 13 13 12 13 14
Wind_Direction
211 235 279 233 232 241 121 106 99 128 141 65 113 223 64 30 357 41 143 127 143 144 140 152 140 125 117 113 108 101 92 85 77 80 95 101 96 93 88 79 75 82 83 83 78 73 66 57 51
245 188 235 252 251 195 113 100 145 105 104 126 108 130 122 78 64 114 142 156 149 141 146 145 135 127 123 117 110 103 98 97 91 83 86 89 86 81 75 80 91 81 82 82 80 77 72 62 56
234 17 259 251 282 84 90 114 123 115 125 154 122 21 45 71 101 144 117 153 148 144 145 132 140 128 126 122 117 112 107 104 101 96 84 77 69 70 80 82 90 91 98 87 83 79 72 63 58
283 187 188 250 116 74 33 93 142 140 127 78 122 100 105 338 133 144 140 153 149 145 151 138 138 134 133 125 120 118 115 112 103 95 96 95 94 93 87 80 70 61 82 89 82 75 69 64 57
318 221 207 129 101 63 13 323 170 140 122 125 187 115 75 128 81 139 147 157 151 149 151 157 153 143 140 136 132 126 123 119 113 106 97 104 98 89 84 78 72 66 65 68 66 61 62 65 63
216 295 211 131 59 26 45 142 164 128 122 129 129 127 123 71 143 151 157 155 153 148 154 150 146 140 145 139 133 130 127 121 116 112 105 100 105 100 88 76 75 79 79 76 73 64 51 48 53
5 334 76 106 21 82 37 140 195 145 146 142 127 142 88 167 155 151 164 151 155 149 159 158 161 154 139 132 134 132 120 113 111 108 96 88 82 84 74 51 43 54 81 81 57 39 16 360 357
356 287 165 74 83 66 6 252 304 281 118 119 214 169 157 179 154 155 161 156 158 159 165 168 172 175 171 159 137 128 116 115 111 107 103 96 110 83 92 306 46 357 351 346 340 333 335 334 331
213 255 157 95 84 88 23 288 120 115 147 170 106 68 67 139 154 157 157 163 168 167 171 172 173 174 171 161 134 142 137 127 135 145 112 180 39 10 312 42 351 344 340 330 323 320 315 312 268
230 267 137 52 40 34 359 312 244 210 167 183 161 81 130 145 158 165 169 176 176 178 185 178 181 178 168 162 158 165 151 174 173 182 230 320 338 3 326 294 296 283 293 293 298 303 302 263 312
152 241 159 136 41 337 342 64 274 238 207 217 207 155 159 157 165 178 181 178 186 185 182 199 184 187 182 171 176 182 187 186 186 194 214 243 288 309 297 303 300 312 239 293 277 288 292 310 304
220 241 216 145 168 328 331 320 244 251 37 6 239 160 165 170 172 184 185 181 183 194 196 193 204 188 200 200 199 193 202 201 208 208 223 237 242 268 283 286 297 277 288 295 287 288 291 287 282
222 208 208 159 161 283 304 303 310 256 270 28 142 158 176 179 177 184 187 182 186 195 202 203 203 200 198 212 208 214 224 219 240 225 227 242 248 251 267 275 280 286 287 283 290 292 293 291 286
216 219 205 186 173 217 284 316 289 58 312 140 160 173 180 186 183 173 185 189 195 202 200 197 197 203 201 213 216 220 224 224 225 233 231 227 257 276 284 289 287 288 292 293 288 295 295 293 293
222 211 198 208 207 238 270 261 245 10 289 226 188 182 185 191 188 191 187 195 196 198 191 195 203 199 203 210 217 223 225 238 239 239 244 250 260 279 288 289 290 296 303 293 283 282 283 284 284
155 205 219 195 200 212 223 252 257 353 237 239 213 196 192 191 195 198 191 199 196 191 195 192 202 207 207 214 214 225 228 243 258 270 285 290 288 287 282 284 287 302 304 300 299 294 291 291 291
162 221 212 214 191 222 216 253 207 320 243 246 227 214 195 188 201 197 198 202 200 204 200 196 201 211 211 219 227 236 247 256 278 295 303 312 300 301 296 305 311 315 298 305 308 302 292 301 304
164 191 204 207 182 217 223 249 223 249 247 249 233 212 203 199 204 198 202 206 210 211 215 215 209 218 215 223 233 238 250 271 317 350 358 1 5 2 350 343 321 325 319 317 318 309 310 305 305
170 154 142 199 90 212 217 233 234 210 262 242 226 209 199 195 169 198 205 202 193 186 206 211 215 209 207 215 226 231 252 82 69 65 36 29 22 14 11 4 352 348 344 340 335 327 321 316 324
134 153 164 136 153 222 207 236 243 211 246 265 266 199 185 158 134 90 89 115 130 111 100 103 90 67 84 233 216 319 106 82 69 48 44 33 33 28 23 18 9 5 349 353 353 351 333 316 340
196 192 182 105 114 36 176 260 242 239 191 190 47 89 178 167 133 109 85 75 79 78 80 81 73 63 50 42 81 98 92 64 46 23 22 34 37 32 28 26 17 12 9 5 359 358 351 330 320
222 221 153 138 163 232 198 264 209 224 209 163 137 129 133 127 115 108 98 79 69 68 75 78 74 67 54 50 60 65 70 87 62 30 30 42 33 28 25 20 18 16 13 9 2 359 348 334 325
151 153 148 175 152 80 198 260 223 213 217 201 149 130 113 109 111 107 97 91 79 67 63 70 73 66 63 64 71 78 79 53 94 89 57 43 38 34 27 23 19 16 11 3 4 1 359 348 331
142 99 61 53 138 233 195 205 221 192 218 172 139 127 122 114 105 99 95 92 80 70 57 53 63 60 55 62 62 64 62 35 60 53 56 36 31 23 23 21 23 19 14 8 358 0 8 6 352
155 135 137 189 228 234 52 201 244 219 208 182 153 140 132 121 114 111 100 88 80 66 70 58 48 62 56 57 54 54 59 46 45 56 52 42 36 27 13 9 9 9 4 4 353 359 2 5 355
181 204 207 211 191 149 105 225 166 336 128 138 138 132 128 120 114 111 103 98 85 80 67 70 53 61 52 55 60 54 48 32 25 38 35 45 35 16 4 6 7 10 3 355 352 359 1 359 350
161 206 356 98 25 185 193 230 175 132 131 137 136 138 128 122 119 114 106 99 98 89 87 84 80 64 53 60 55 53 56 46 28 38 36 38 27 6 4 10 2 9 8 1 358 4 4 357 351
248 141 131 172 185 221 191 248 217 178 160 154 151 146 136 128 123 115 107 105 100 98 105 99 93 93 88 80 69 71 73 67 51 37 31 27 18 14 8 1 2 8 9 9 6 3 3 358 358
146 184 63 107 242 244 191 202 17 185 171 164 158 150 136 132 134 125 118 106 102 107 106 93 84 82 78 75 78 73 62 52 50 44 31 19 12 7 4 4 7 8 7 10 9 3 359 356 351
25 207 189 222 184 259 350 254 325 220 179 166 153 144 139 136 132 129 125 114 106 96 82 82 84 81 69 61 60 59 51 47 42 36 27 17 12 9 7 7 7 6 8 8 6 359 353 351 347